GW6468 Weather Reports


time (UTC)temp
C
wind
direction
speed
KPH
gust
KPH
rain 1hr
cm
rain 24hr
cm
rain mn
cm
humidity
%
barometer
mb
20260906071529 21 124 0.0 4.8 0.00 0.79 0.00 73 1011.8
20260906070032 21 138 0.0 1.6 0.00 0.79 0.00 73 1011.9
20260906064516 21 135 0.0 1.6 0.00 0.79 0.00 74 1012.3
20260906063024 21 132 0.0 3.2 0.00 0.79 0.00 74 1012.6
20260906061535 21 120 1.6 3.2 0.00 0.79 0.00 74 1012.8
20260906060034 21 119 0.0 1.6 0.00 0.79 0.00 74 1012.8
20260906054552 21 118 0.0 4.8 0.00 0.79 0.00 74 1013.0
20260906053018 21 130 0.0 3.2 0.00 0.79 0.00 74 1012.9
20260906051525 21 117 1.6 3.2 0.00 0.79 0.00 74 1013.1
20260906050030 21 121 1.6 4.8 0.00 0.79 0.00 74 1013.2
20260906044536 21 119 0.0 4.8 0.00 0.79 0.00 74 1013.2
20260906043033 22 114 1.6 4.8 0.00 0.79 0.00 74 1013.4
20260906041524 22 124 1.6 3.2 0.00 0.79 0.00 74 1013.3
20260906040054 22 129 0.0 1.6 0.00 0.79 0.00 74 1013.6
20260906034533 22 129 0.0 3.2 0.00 0.79 0.79 74 1013.6
20260906033044 22 118 3.2 4.8 0.00 0.79 0.79 74 1013.6
20260906031535 22 127 0.0 1.6 0.00 0.79 0.79 74 1013.6
20260906030026 22 127 0.0 3.2 0.00 0.79 0.79 74 1013.4
20260906024529 22 143 0.0 1.6 0.00 0.79 0.79 74 1013.3
20260906023031 22 127 0.0 1.6 0.00 0.79 0.79 74 1013.3
20260906021534 22 122 0.0 4.8 0.00 0.79 0.79 74 1013.1
20260906020034 22 116 0.0 3.2 0.00 0.79 0.79 74 1013.1
20260906014529 22 134 0.0 3.2 0.00 0.79 0.79 74 1013.0
20260906013006 23 143 0.0 1.6 0.00 0.79 0.79 74 1012.9
20260906011514 23 149 0.0 1.6 0.00 0.79 0.79 74 1012.7
20260906010018 24 167 0.0 0.0 0.00 0.79 0.79 74 1012.8
20260906004523 25 168 0.0 1.6 0.00 0.79 0.79 74 1013.0
20260906003027 24 167 0.0 0.0 0.00 0.79 0.79 74 1012.8
20260906001507 25 167 0.0 0.0 0.00 0.79 0.79 74 1012.4
20260906000009 25 167 0.0 0.0 0.00 0.79 0.79 75 1012.2
20260905234518 26 149 0.0 1.6 0.00 0.79 0.79 75 1012.1
20260905233020 29 126 0.0 1.6 0.00 0.79 0.79 75 1012.2
20260905231527 29 125 0.0 1.6 0.00 0.79 0.79 76 1012.0
20260905230006 29 124 0.0 3.2 0.00 0.79 0.79 75 1011.9
20260905224520 29 105 1.6 4.8 0.00 0.79 0.79 75 1012.0
20260905223020 29 92 1.6 9.7 0.00 0.79 0.79 75 1012.0
20260905221522 29 354 6.4 9.7 0.00 0.79 0.79 75 1011.8
20260905220027 29 325 3.2 11.3 0.00 0.79 0.79 75 1011.9
20260905214507 28 27 4.8 11.3 0.00 0.79 0.79 75 1012.3
20260905213011 28 27 8.0 9.7 0.00 0.79 0.79 75 1012.7
20260905211536 27 11 4.8 11.3 0.00 0.79 0.79 75 1012.4
20260905210038 26 344 6.4 11.3 0.00 0.79 0.79 75 1012.4
20260905204532 24 39 3.2 4.8 0.00 0.79 0.79 74 1012.2
20260905203008 24 130 0.0 4.8 0.00 0.79 0.79 74 1012.1
20260905201512 23 89 1.6 6.4 0.00 0.79 0.79 74 1012.6
20260905200026 23 145 1.6 9.7 0.00 0.79 0.79 74 1012.9
20260905194527 23 309 1.6 3.2 0.00 0.79 0.79 74 1013.1
20260905193031 23 185 0.0 3.2 0.00 0.79 0.79 74 1013.0
20260905191508 22 136 4.8 6.4 0.00 0.79 0.79 74 1012.7
20260905190014 22 188 0.0 9.7 0.00 0.79 0.79 74 1012.3
20260905184529 22 156 0.0 3.2 0.18 0.79 0.79 74 1012.1
20260905183029 21 195 0.0 3.2 0.79 0.79 0.79 74 1012.2
20260905181532 21 78 3.2 11.3 0.79 0.79 0.79 74 1013.2
20260905180014 21 232 8.0 24.1 0.79 0.79 0.79 74 1013.2
20260905174524 22 151 25.7 56.3 0.61 0.61 0.61 74 1015.0
20260905173024 33 49 3.2 14.5 0.00 0.00 0.00 76 1013.9
20260905171531 35 115 4.8 11.3 0.00 0.00 0.00 77 1013.8
20260905170033 35 108 6.4 11.3 0.00 0.00 0.00 77 1013.8
20260905164523 35 187 3.2 11.3 0.00 0.00 0.00 77 1013.8
20260905163024 34 47 6.4 14.5 0.00 0.00 0.00 77 1014.0
20260905161526 33 4 6.4 16.1 0.00 0.00 0.00 76 1014.2
20260905160008 33 128 3.2 9.7 0.00 0.00 0.00 76 1014.5
20260905154512 33 142 4.8 14.5 0.00 0.00 0.00 76 1014.4
20260905153019 33 29 4.8 9.7 0.00 0.00 0.00 76 1014.3
20260905151525 32 34 1.6 11.3 0.00 0.00 0.00 76 1014.3
20260905150030 32 341 1.6 8.0 0.00 0.00 0.00 76 1014.3
20260905144532 31 195 1.6 11.3 0.00 0.00 0.00 76 1014.4
20260905143011 30 338 6.4 9.7 0.00 0.00 0.00 76 1014.5
20260905141519 29 42 3.2 8.0 0.00 0.00 0.00 75 1014.6
20260905140025 29 72 1.6 6.4 0.00 0.00 0.00 75 1014.3
20260905134529 28 19 3.2 4.8 0.00 0.00 0.00 75 1014.5
20260905133037 27 72 3.2 6.4 0.00 0.00 0.00 75 1014.7
20260905131523 27 122 1.6 4.8 0.00 0.00 0.00 75 1014.6
20260905130017 26 117 1.6 4.8 0.00 0.00 0.00 75 1014.9
20260905124526 25 114 0.0 1.6 0.00 0.00 0.00 74 1014.8
20260905123030 24 126 0.0 1.6 0.00 0.00 0.00 74 1014.9
20260905121531 23 132 0.0 1.6 0.00 0.00 0.00 74 1014.7
20260905120034 22 123 1.6 3.2 0.00 0.00 0.00 74 1014.5
20260905114522 21 131 0.0 0.0 0.00 0.00 0.00 74 1014.4
20260905113038 -17 0.0 0.0 0.00 0.00 0.00 1014.4
20260905111536 -17 0.0 0.0 0.00 0.00 0.00 1014.3
20260905110037 -17 0.0 0.0 0.00 0.00 0.00 1014.0
20260905104540 -17 0.0 0.0 0.00 0.00 0.00 1013.9
20260905103038 -17 0.0 0.0 0.00 0.00 0.00 1013.8
20260905101544 -17 0.0 0.0 0.00 0.00 0.00 1013.7
20260905100108 -17 0.0 0.0 0.00 0.00 0.00 1013.7
20260905094545 -17 0.0 0.0 0.00 0.00 0.00 1013.7
20260905093038 -17 0.0 0.0 0.00 0.00 0.00 1013.5
20260905091550 -17 0.0 0.0 0.00 0.00 0.00 1013.6
20260905090036 -17 0.0 0.0 0.00 0.00 0.00 1013.7
20260905084543 -17 0.0 0.0 0.00 0.00 0.00 1013.7
20260905083051 -17 140 0.0 1.6 0.00 0.00 0.00 74 1014.0
20260905081533 22 139 0.0 1.6 0.00 0.00 0.00 74 1014.0
20260905080031 22 139 0.0 1.6 0.00 0.00 0.00 74 1014.2
20260905074537 22 129 0.0 3.2 0.00 0.00 0.00 74 1014.3
20260905073026 22 117 0.0 3.2 0.00 0.00 0.00 74 1014.3